Auburn, IN

6:02 AM EDT on March 29, 2017 (GMT -0400)
Auburn

Weather History for KGWB - April, 2013

Change the Weather History Date:

Saturday, April 6, 2013

  Actual Average (KFWA) Record (KFWA)
Temperature  
Mean Temperature 46 °F -  
Max Temperature 60 °F 55 °F 84 °F (2010)
Min Temperature 32 °F 35 °F 18 °F (1982)
Degree Days  
Heating Degree Days 19    
Moisture  
Dew Point 26 °F    
Average Humidity 47    
Maximum Humidity 70    
Minimum Humidity 29    
Precipitation  
Precipitation 0.00 in - - ()
Sea Level Pressure  
Sea Level Pressure 30.04 in    
Wind  
Wind Speed 7 mph (SE)    
Max Wind Speed 14 mph    
Max Gust Speed 23 mph    
Visibility 10 miles    
Events      
Averages and records for this station are not official NWS values.
T = Trace of Precipitation, MM = Missing Value Source: NWS Daily Summary

Daily Weather History Graph

Daily Weather History Graph

Search for Another Location

Airport or City:

Trip Planner

Search our weather history database for the weather conditions in past years. The results will help you decide how hot, cold, wet, or windy it might be!

Date:

Astronomy

Apr. 06, 2013 Rise Set
Actual Time 7:14 AM EDT 8:11 PM EDT
Civil Twilight 6:46 AM EDT 8:39 PM EDT
Nautical Twilight 6:13 AM EDT 9:12 PM EDT
Astronomical Twilight 5:38 AM EDT 9:47 PM EDT
Moon 5:00 AM EDT (4/6) 4:36 PM EDT (4/6)
Length of Visible Light 13h 52m
Length of Day
12h 56m
Waning Crescent, 15% of the Moon is Illuminated
Apr 6
Waning Crescent
Apr 10
New
Apr 18
First Quarter
Apr 25
Full
May 2
Last Quarter

Hourly Weather History & Observations

Time (EDT) Temp. Windchill Dew Point Humidity Pressure Visibility Wind Dir Wind Speed Gust Speed Precip Events Conditions
12:15 AM 33.8 °F 29.6 °F 23.0 °F 65% 30.16 in 10.0 mi ENE 4.6 mph - N/A   Clear
12:35 AM 33.8 °F 29.6 °F 23.0 °F 65% 30.17 in 10.0 mi ENE 4.6 mph - N/A   Clear
12:55 AM 33.8 °F 29.6 °F 21.2 °F 60% 30.17 in 10.0 mi East 4.6 mph - N/A   Clear
1:15 AM 35.6 °F 32.8 °F 21.2 °F 56% 30.17 in 10.0 mi East 3.5 mph - N/A   Clear
1:35 AM 33.8 °F 28.6 °F 21.2 °F 60% 30.18 in 10.0 mi East 5.8 mph - N/A   Clear
1:55 AM 32.0 °F 25.6 °F 21.2 °F 64% 30.17 in 10.0 mi East 6.9 mph - N/A   Clear
2:15 AM 33.8 °F 28.6 °F 23.0 °F 65% 30.18 in 10.0 mi East 5.8 mph - N/A   Scattered Clouds
2:35 AM 33.8 °F 28.6 °F 23.0 °F 65% 30.17 in 10.0 mi East 5.8 mph - N/A   Scattered Clouds
2:55 AM 33.8 °F 29.6 °F 23.0 °F 65% 30.17 in 10.0 mi East 4.6 mph - N/A   Clear
3:15 AM 33.8 °F 28.6 °F 23.0 °F 65% 30.17 in 10.0 mi East 5.8 mph - N/A   Mostly Cloudy
3:35 AM 33.8 °F 27.0 °F 23.0 °F 65% 30.16 in 10.0 mi East 8.1 mph - N/A   Scattered Clouds
3:55 AM 33.8 °F 28.6 °F 23.0 °F 65% 30.17 in 10.0 mi ESE 5.8 mph - N/A   Clear
4:15 AM 33.8 °F 28.6 °F 23.0 °F 65% 30.18 in 10.0 mi East 5.8 mph - N/A   Scattered Clouds
4:35 AM 33.8 °F 28.6 °F 24.8 °F 70% 30.18 in 10.0 mi East 5.8 mph - N/A   Mostly Cloudy
4:55 AM 33.8 °F 27.7 °F 24.8 °F 70% 30.18 in 10.0 mi East 6.9 mph - N/A   Overcast
5:15 AM 33.8 °F 27.7 °F 24.8 °F 70% 30.17 in 10.0 mi East 6.9 mph - N/A   Mostly Cloudy
5:35 AM 33.8 °F 29.6 °F 24.8 °F 70% 30.19 in 10.0 mi East 4.6 mph - N/A   Scattered Clouds
5:55 AM 33.8 °F 28.6 °F 24.8 °F 70% 30.19 in 10.0 mi East 5.8 mph - N/A   Mostly Cloudy
6:15 AM 33.8 °F 27.7 °F 24.8 °F 70% 30.18 in 10.0 mi ESE 6.9 mph - N/A   Mostly Cloudy
6:35 AM 33.8 °F 29.6 °F 24.8 °F 70% 30.18 in 10.0 mi ESE 4.6 mph - N/A   Mostly Cloudy
6:55 AM 33.8 °F 28.6 °F 24.8 °F 70% 30.18 in 10.0 mi ESE 5.8 mph - N/A   Overcast
7:15 AM 33.8 °F 28.6 °F 24.8 °F 70% 30.18 in 10.0 mi East 5.8 mph - N/A   Scattered Clouds
7:35 AM 33.8 °F 28.6 °F 24.8 °F 70% 30.19 in 10.0 mi ESE 5.8 mph - N/A   Mostly Cloudy
7:55 AM 35.6 °F 30.7 °F 24.8 °F 65% 30.19 in 10.0 mi ESE 5.8 mph - N/A   Mostly Cloudy
8:15 AM 35.6 °F 30.7 °F 24.8 °F 65% 30.19 in 10.0 mi ESE 5.8 mph - N/A   Mostly Cloudy
8:35 AM 35.6 °F 30.7 °F 24.8 °F 65% 30.19 in 10.0 mi ESE 5.8 mph - N/A   Mostly Cloudy
8:55 AM 37.4 °F 32.1 °F 24.8 °F 60% 30.20 in 10.0 mi ESE 6.9 mph - N/A   Scattered Clouds
9:15 AM 37.4 °F 31.4 °F 24.8 °F 60% 30.19 in 10.0 mi ESE 8.1 mph - N/A   Scattered Clouds
9:35 AM 39.2 °F 31.6 °F 23.0 °F 52% 30.18 in 10.0 mi ESE 12.7 mph 20.7 mph N/A   Clear
9:55 AM 41.0 °F 35.8 °F 23.0 °F 49% 30.18 in 10.0 mi ESE 8.1 mph - N/A   Scattered Clouds
10:15 AM 42.8 °F 40.1 °F 23.0 °F 46% 30.17 in 10.0 mi SE 4.6 mph - N/A   Scattered Clouds
10:35 AM 42.8 °F 38.6 °F 23.0 °F 46% 30.17 in 10.0 mi SSE 6.9 mph 17.3 mph N/A   Clear
10:55 AM 44.6 °F 39.7 °F 21.2 °F 39% 30.17 in 10.0 mi SSE 9.2 mph 18.4 mph N/A   Clear
11:15 AM 46.4 °F 41.9 °F 21.2 °F 37% 30.16 in 10.0 mi SSE 9.2 mph - N/A   Clear
11:35 AM 46.4 °F 41.5 °F 21.2 °F 37% 30.15 in 10.0 mi SE 10.4 mph 19.6 mph N/A   Clear
11:55 AM 50.0 °F - 21.2 °F 32% 30.13 in 10.0 mi SSE 9.2 mph 17.3 mph N/A   Clear
12:15 PM 50.0 °F - 21.2 °F 32% 30.13 in 10.0 mi SSE 10.4 mph 19.6 mph N/A   Clear
12:35 PM 51.8 °F - 23.0 °F 33% 30.11 in 10.0 mi SSE 11.5 mph 18.4 mph N/A   Clear
12:55 PM 51.8 °F - 23.0 °F 33% 30.10 in 10.0 mi SSE 6.9 mph 18.4 mph N/A   Clear
1:15 PM 51.8 °F - 23.0 °F 33% 30.09 in 10.0 mi SSE 10.4 mph 16.1 mph N/A   Clear
1:35 PM 51.8 °F - 23.0 °F 33% 30.07 in 10.0 mi SSE 9.2 mph 17.3 mph N/A   Clear
1:55 PM 53.6 °F - 23.0 °F 30% 30.06 in 10.0 mi SSE 9.2 mph 17.3 mph N/A   Clear
2:15 PM 55.4 °F - 23.0 °F 29% 30.05 in 10.0 mi SSE 11.5 mph 21.9 mph N/A   Clear
2:35 PM 55.4 °F - 23.0 °F 29% 30.03 in 10.0 mi South 13.8 mph 21.9 mph N/A   Clear
2:55 PM 55.4 °F - 24.8 °F 31% 30.02 in 10.0 mi SE 12.7 mph 21.9 mph N/A   Clear
3:15 PM 59.0 °F - 26.6 °F 29% 30.00 in 10.0 mi SSE 9.2 mph 18.4 mph N/A   Clear
3:35 PM 59.0 °F - 26.6 °F 29% 29.97 in 10.0 mi SE 11.5 mph 17.3 mph N/A   Clear
3:55 PM 59.0 °F - 26.6 °F 29% 29.96 in 10.0 mi SSE 10.4 mph 19.6 mph N/A   Clear
4:15 PM 59.0 °F - 26.6 °F 29% 29.95 in 10.0 mi South 5.8 mph 23.0 mph N/A   Clear
4:35 PM 59.0 °F - 28.4 °F 31% 29.92 in 10.0 mi South 11.5 mph 19.6 mph N/A   Clear
4:55 PM 59.0 °F - 28.4 °F 31% 29.91 in 10.0 mi SSE 10.4 mph 19.6 mph N/A   Clear
5:15 PM 59.0 °F - 28.4 °F 31% 29.89 in 10.0 mi SE 8.1 mph 20.7 mph N/A   Clear
5:35 PM 60.8 °F - 28.4 °F 29% 29.89 in 10.0 mi SSE 10.4 mph 17.3 mph N/A   Clear
5:55 PM 59.0 °F - 28.4 °F 31% 29.88 in 10.0 mi SSE 8.1 mph - N/A   Clear
6:15 PM 59.0 °F - 28.4 °F 31% 29.87 in 10.0 mi SSE 6.9 mph 17.3 mph N/A   Clear
6:35 PM 59.0 °F - 28.4 °F 31% 29.87 in 10.0 mi SE 10.4 mph 17.3 mph N/A   Clear
6:55 PM 59.0 °F - 28.4 °F 31% 29.86 in 10.0 mi SE 8.1 mph - N/A   Clear
7:15 PM 59.0 °F - 28.4 °F 31% 29.85 in 10.0 mi SE 6.9 mph - N/A   Clear
7:35 PM 59.0 °F - 30.2 °F 34% 29.85 in 10.0 mi SE 4.6 mph - N/A   Clear
7:55 PM 57.2 °F - 30.2 °F 36% 29.85 in 10.0 mi SE 4.6 mph - N/A   Scattered Clouds
8:15 PM 57.2 °F - 30.2 °F 36% 29.84 in 10.0 mi SSE 5.8 mph - N/A   Clear
8:35 PM 59.0 °F - 30.2 °F 34% 29.84 in 10.0 mi SSE 4.6 mph - N/A   Clear
8:55 PM 59.0 °F - 30.2 °F 34% 29.83 in 10.0 mi SE 6.9 mph - N/A   Clear
9:15 PM 59.0 °F - 30.2 °F 34% 29.82 in 10.0 mi SSE 5.8 mph - N/A   Clear
9:35 PM 57.2 °F - 30.2 °F 36% 29.81 in 10.0 mi SE 5.8 mph - N/A   Clear
9:55 PM 55.4 °F - 30.2 °F 38% 29.80 in 10.0 mi SSE 5.8 mph - N/A   Clear
10:15 PM 55.4 °F - 32.0 °F 41% 29.80 in 10.0 mi SSE 5.8 mph - N/A   Clear
10:35 PM 55.4 °F - 32.0 °F 41% 29.79 in 10.0 mi SSE 6.9 mph - N/A   Clear
10:55 PM 55.4 °F - 32.0 °F 41% 29.79 in 10.0 mi South 5.8 mph - N/A   Clear
11:15 PM 55.4 °F - 32.0 °F 41% 29.78 in 10.0 mi South 6.9 mph - N/A   Clear
11:35 PM 57.2 °F - 32.0 °F 38% 29.78 in 10.0 mi South 9.2 mph - N/A   Scattered Clouds
11:55 PM 59.0 °F - 32.0 °F 36% 29.78 in 10.0 mi South 9.2 mph 16.1 mph N/A   Scattered Clouds